Voltar ao catálogo

ATLAS 5 CENTAUR DEB

AtivoHEO
NORAD 44009·DEBRIS·🇺🇸 United States

Lançado Sep 17, 2014 de Cape Canaveral Space Force Station

Loading…

Próximas Passagens (próximas 24 horas)

TLE

AtualizadoSource: Space-Track

Época: Sep 9, 2026, 05:13 UTC

1 44009U 14055BQ  26252.21766967 -.00000163  00000-0  00000-0 0  9994
2 44009  20.9421  98.8166 4985825 248.7607  52.2548  1.91632824 55563

Acompanhe ATLAS 5 CENTAUR DEB em tempo real com AllMySat

Download on the App Store